www.pogodaiklimat.ru

Погода и климат >> Архив погоды >> Индия >> Kanyakumari


ПОГОДА в Kanyakumari

  • Прогноз погоды в Kanyakumari
  • Монитор погоды в Kanyakumari
  • Климат города

АРХИВ ПОГОДЫ в Kanyakumari

Время (UTC), дата Ветер
(напр.,м/с)
 
Видим.   Явления Облачность Т
(С)
Тd
(С)
f
(%)
Тe
(С)
Тes
(С)
Комфортность P
(гПа)
Po
(гПа)
Тmin
(С)
Tmax
(С)
R
(мм)
R24
(мм)
S
(см)
15 11.11 З 3 4000 м 6/3 600 м
[Sc diur, vesp Ac trans Cs]
+27.0 +23.8 83 +37 +37 очень
душно
1012.7 1008.6
18 11.11 С 2 4000 м 6/3 600 м
[Sc diur, vesp Ac trans Cs]
+26.2 +23.0 83 +35 +35 очень
душно
1012.2 1008.1
21 11.11 СЗ 2 4000 м 6/3 600 м
[Sc diur, vesp Ac trans Ci sp]
+25.6 +22.6 84 +34 +34 очень
душно
1010.4 1006.3
00 12.11 З 2 4000 м 6/3 600 м
[Sc Ac trans Ci sp]
+25.6 +22.6 84 +34 +34 очень
душно
1010.9 1006.8
03 12.11 С 2 4000 м мгла ясно +27.6 +23.5 78 +37 +42 очень
душно
1012.7 1008.6 +23.3 +31.9
06 12.11 В 1 4000 м мгла 1/1 600 м
[Sc]
+30.6 +22.4 62 +40 +57 опасность
солнечного
удара
1011.8 1007.7
09 12.11 З 1 4000 м мгла 1/1 600 м
[Sc]
+32.0 +23.3 60 +43 +55 опасность
перегрева
1009.3 1005.2
12 12.11 ЮЗ 2 4000 м мгла 8/3 600 м
[Cb calv Ac As Ci sp]
+29.0 +23.8 74 +40 +40 очень
душно
1009.2 1005.1 +32.5
15 12.11 З 3 4000 м 9/3 600 м
[Cb calv Ac trans Ci sp]
+27.4 +23.6 80 +37 +37 очень
душно
1011.3 1007.2
18 12.11 З 2 4000 м 6/3 600 м
[Sc diur, vesp Ac trans Ci sp]
+26.2 +23.3 84 +35 +35 очень
душно
1010.9 1006.8
21 12.11 З 2 4000 м 8/3 600 м
[Sc diur, vesp Ac trans Ci sp]
+25.8 +23.5 87 +35 +35 очень
душно
1009.3 1005.2
00 13.11 З 3 4000 м 5/3 600 м
[Sc diur, vesp Ac trans]
+25.0 +23.5 91 +34 +34 очень
душно
1009.4 1005.2
03 13.11 З 3 4000 м мгла 5/3 600 м
[Cu Sc Ac trans Ci sp]
+27.4 +23.6 80 +37 +40 очень
душно
1011.3 1007.2 +23.6 +32.5
06 13.11 СЗ 3 4000 м мгла 4/1 600 м
[Sc Ac trans Ci sp]
+31.4 +24.3 66 +44 +55 опасность
перегрева
1010.2 1006.2
09 13.11 штиль 0 50 км мгла ?/? +31.0 +22.9 62 +41 +41 опасность
перегрева
1007.1 1003.0
12 13.11 З 4 4000 м мгла 4/1 600 м
[Sc Ac trans Ci sp]
+28.6 +23.1 72 +38 +39 очень
душно
1007.0 1002.9 +32.0
15 13.11 З 2 4000 м 4/1 600 м
[Sc Ac trans Ci sp]
+27.0 +23.5 81 +37 +37 очень
душно
1009.1 1005.0
18 13.11 З 4 4000 м 4/1 600 м
[Sc Ac trans Ci sp]
+26.6 +23.1 81 +36 +36 очень
душно
1009.1 1005.0
21 13.11 З 3 4000 м 4/1 600 м
[Sc Ac trans Ci sp]
+25.0 +22.9 88 +33 +33 очень
душно
1007.7 1003.5
00 14.11 З 3 4000 м 8/4 600 м
[Cu Sc Ac As Cs]
+24.6 +22.5 88 +32 +32 очень
душно
1008.5 1004.3
03 14.11 С 2 4000 м мгла 1/1 600 м
[Sc]
+27.8 +22.5 73 +37 +41 очень
душно
1010.6 1006.5 +23.4 +32.0
06 14.11 Ю 2 4000 м мгла 3/1 600 м
[Cu Sc Cs]
+31.6 +23.9 64 +43 +59 опасность
перегрева
1009.4 1005.4
09 14.11 З 3 4000 м мгла 5/1 600 м
[Cu hum Ci sp]
+31.4 +24.9 68 +45 +54 опасность
перегрева
1007.0 1003.0
12 14.11 З 3 4000 м в посл. час морось 8/1 600 м
[Sc diur, vesp Ac As Ci sp]
+29.0 +25.3 80 +42 +42 опасность
перегрева
1007.4 1003.3 +32.3 0.0
15 14.11 С 1 4000 м 9/3 600 м
[Sc Ac trans Ci sp]
+27.8 +23.7 78 +38 +38 очень
душно
1009.6 1005.5 0.0
18 14.11 С 1 4000 м 10/3 600 м
[Sc Ac trans Ci sp]
+27.2 +24.3 84 +38 +38 очень
душно
1009.6 1005.5 0.0
00 15.11 штиль 0 4000 м 9/3 600 м
[Sc diur, vesp Ac trans Ci sp]
+27.0 +24.4 86 +38 +38 очень
душно
1008.2 1004.1 0.0
03 15.11 штиль 0 4000 м мгла 5/1 600 м
[Sc diur, vesp Ac trans Ci sp]
+28.6 +25.2 82 +42 +46 опасность
перегрева
1010.2 1006.1 +25.2 +32.3 0.0
06 15.11 Ю 2 4000 м мгла 8/4 600 м
[Sc diur, vesp Ci sp]
+31.6 +26.3 74 +48 +57 опасность
перегрева
1009.5 1005.5
09 15.11 С 1 4000 м слабый дождь 10/4 300 м
[Frnb As op]
+28.2 +26.8 92 +44 +46 опасность
перегрева
1007.7 1003.6 2
12 15.11 З 2 4000 м {дождь, морось} 10/3 600 м
[Sc Ac As Cs]
+28.8 +25.7 83 +43 +43 опасность
перегрева
1007.6 1003.5 +32.6 3
15 15.11 З 1 4000 м 8/3 600 м
[Sc Ac As Cs]
+28.2 +25.4 85 +41 +41 опасность
перегрева
1009.3 1005.2 3
18 15.11 З 3 4000 м 8/3 600 м
[Sc Ac As Cs]
+28.2 +25.4 85 +41 +41 опасность
перегрева
1009.5 1005.4
21 15.11 З 7 4000 м слабый дождь 10/4 300 м
[Frnb As op]
+24.0 +23.1 95 +32 +32 очень
душно
1008.4 1004.2 12
00 16.11 З 7 4000 м слабый дождь 10/4 300 м
[Frnb As op]
+23.0 +22.4 96 +31 +31 очень
душно
1009.4 1005.2 45
03 16.11 З 3 4000 м {дождь, морось} 10/4 600 м
[Cu Sc Ac As Cs]
+23.6 +23.0 96 +31 +32 очень
душно
1010.8 1006.6 +21.0 +32.7 51
06 16.11 З 3 4000 м {дождь, морось} 10/4 600 м
[Cu Sc Ac As Cs]
+26.2 +22.7 81 +35 +39 очень
душно
1009.4 1005.3
12 16.11 С 1 4000 м 10/4 600 м
[Cu Sc Ac As Cs]
+27.6 +24.1 81 +38 +39 очень
душно
1008.4 1004.3 +30.2
15 16.11 штиль 0 4000 м 9/3 600 м
[Cu Sc Ac As Cs]
+26.2 +23.3 84 +35 +35 очень
душно
1010.6 1006.5
18 16.11 С 1 4000 м 8/3 600 м
[Sc Ac trans Ci sp]
+25.8 +21.9 79 +33 +33 очень
душно
1011.1 1007.0
21 16.11 С 1 4000 м 8/3 600 м
[Sc Ac trans Ci sp]
+25.8 +21.9 79 +33 +33 очень
душно
1009.7 1005.6
00 17.11 С 2 4000 м 8/3 600 м
[Sc diur, vesp Ac As Ci sp]
+25.2 +22.2 83 +33 +33 очень
душно
1010.4 1006.3
03 17.11 С 3 4000 м мгла 10/4 600 м
[Sc diur, vesp Ac As Cs]
+26.2 +22.0 78 +34 +35 очень
душно
1012.2 1008.1 +23.7 +30.2
06 17.11 СВ 2 4000 м мгла 4/1 600 м
[Sc Ci sp]
+30.2 +24.8 73 +43 +58 опасность
перегрева
1011.2 1007.1
09 17.11 ЮВ 2 4000 м мгла 5/3 600 м
[Cu hum Ac trans Ci sp]
+30.8 +25.1 72 +45 +52 опасность
перегрева
1008.9 1004.8
12 17.11 Ю 2 4000 м мгла 3/1 600 м
[Sc Cs]
+30.0 +24.9 74 +43 +43 опасность
перегрева
1008.8 1004.7 +31.8
15 17.11 штиль 0 4000 м 5/3 600 м
[Cu Sc Ac trans Ci sp]
+27.3 +25.0 87 +39 +39 очень
душно
1011.8 1007.7
18 17.11 <100 м н/о +26.2 +23.3 84 +18 +18 1011.7 1007.6
21 17.11 штиль 0 4000 м 5/3 600 м
[Cu Sc Ac trans Cs]
+25.8 +22.9 84 +34 +34 очень
душно
1010.1 1006.0
00 18.11 штиль 0 4000 м 4/1 600 м
[Cu Sc Ac trans Ci sp]
+25.4 +22.4 83 +33 +33 очень
душно
1010.3 1006.2
03 18.11 СВ 2 4000 м мгла 1/0
[Cs]
+28.2 +24.5 80 +40 +44 очень
душно
1012.7 1008.6 +23.9 +31.8
06 18.11 нст 1 4000 м мгла 4/1 600 м
[Cu med, cong Cs]
+30.6 +25.8 76 +46 +62 опасность
перегрева
1012.2 1008.1
09 18.11 В 3 4000 м мгла 3/1 600 м
[Cu med, cong Ci fib]
+30.6 +24.9 72 +44 +53 опасность
перегрева
1009.0 1004.9

 

Местоположение метеостанции Kanyakumari (Tamil Nadu, Индия): широта 8.08 долгота 77.50 высота над уровнем моря 37 м.

В архиве по умолчанию представлена погода в Kanyakumari за последнюю неделю. Архивные данные за месяц целиком и за предыдущие месяцы, начиная с января 2011 года, Вы можете получить, выбрав интересующий диапазон дат из раскрывающегося списка и нажав кнопку "Ввод!".


*Определитесь, кто Вы:
робот инопланетянин человек

Внимание! Время в таблицах - всемирное. Для получения местного времени необходимо прибавить поправку, которая в Kanyakumari равна 5.5 ч.

Смотрите также архив погоды в соседних городах и на ближайших метеорологических станциях:

Погода в Thiruvananthapuram Air (Kerala, Индия) (74 км)
Погода в Thiruvananthapuram (Kerala, Индия) (75 км)
Погода в Palayankottai (Tamil Nadu, Индия) (77 км)
Погода в Tuticorin New Port (Tamil Nadu, Индия) (106 км)
Погода в Punalur (Kerala, Индия) (121 км)
Погода в Kovilangulam (Tamil Nadu, Индия) (175 км)
Погода в Kottayam (Kerala, Индия) (189 км)
Погода в Alapuzha (Kerala, Индия) (202 км)
Погода в Madurai Airport (Tamil Nadu, Индия) (205 км)
Погода в Madurai (Tamil Nadu, Индия) (216 км)

Пояснения к столбцам:

Ветер - указаны скорость ветра в м/с - средняя за 10 мин, порывы в срок и между сроками (в фигурных скобках) и направление, откуда дует ветер: С - северный, СВ - северо-восточный, В - восточный, ЮВ - юго-восточный, Ю - южный, ЮЗ - юго-западный, З - западный, СЗ - северо-западный.
Видимость - горизонтальная дальность видимости в метрах или километрах. При видимости от 1 до 10 км при отсутствии осадков обычно наблюдается дымка, при ухудшении видимости до 1 км и менее - туман. В сухую погоду видимость может ухудшаться дымом, пылью или мглою.
Явления - указаны атмосферные явления, наблюдавшиеся в срок или в последний час перед сроком; фигурными скобками обозначены явления, наблюдавшиеся между сроками (за 1-3 часа до срока); квадратными скобками обозначены град или гололедные отложения с указанием их диаметра в мм.
Облачность - указаны через наклонную черту общая и нижняя облачность в баллах и высота нижней границы облаков в метрах; квадратными скобками обозначены формы облаков: Ci - перистые, Cs - перисто-слоистые, Cc - перисто-кучевые, Ac - высококучевые, As - высокослоистые, Sc - слоисто-кучевые, Ns - слоисто-дождевые, Cu - кучевые, Cb - кучево-дождевые. Подробнее классификацию облаков см. в Атласе облаков (PDF).
T - Температура воздуха - температура, измеренная на высоте 2 м над землей.
Td - Температура точки росы - температура, при понижении до которой содержащийся в воздухе водяной пар достигнет насыщения.
f - Относительная влажность воздуха - влажноcть воздуха, измеренная на высоте 2 м над землей.
Te - Эффективная температура - температура, которую ощущает одетый по сезону человек в тени. Характеристика душности погоды. При расчете учитывается влияние влажности воздуха и скорости ветра на теплоощущения человека.
Tes - Эффективная температура на солнце - температура, которую ощущает человек, с поправкой на солнечный нагрев. Характеристика знойности погоды. Зависит от высоты солнца над горизонтом, облачности и скорости ветра. Ночью, в пасмурную погоду, а также при ветре 12 м/с и более поправка равна нулю.
P - Атмосферное давление - приведенное к уровню моря атмосферное давление.
Po - Атмосферное давление - измеренное на уровне метеостанции атмосферное давление.
Tmin - Минимальная температура - минимум температуры воздуха на высоте 2 м над землей.
Tmax - Максимальная температура - максимум температуры воздуха на высоте 2 м над землей.
R - Количество осадков - Количество выпавших осадков за период времени, мм. При наведении курсора мыши на число - период времени, за который выпало указанное количество осадков.
R24 - Количество осадков - Количество выпавших осадков за 24 часа, мм.
S - Снежный покров - Высота снежного покрова, см. При наведении курсора мыши на число - состояние снежного покрова и степень покрытия местности в баллах.